,,Stat6,,Stat2,,Stat8,,Stat9,,Stat10,,Wind1,,Wind1,
time,status,PA1M_AVG,status,PR1M_SUM,status,RH1M_AVG,status,SR1M_AVG,status,TA1M_AVG,status,W1dAve1m,status,W1sAve1m,
2005-02-02, 00:00:00,VALID,918.916,VALID,0,VALID,100,VALID,-0.0849042,VALID,19.897,VALID,356,VALID,0,
2005-02-02, 00:01:00,VALID,918.93,VALID,0,VALID,100,VALID,-0.0169808,VALID,19.8873,VALID,207,VALID,0,
2005-02-02, 00:02:00,VALID,918.931,VALID,0,VALID,100,VALID,-0.0679233,VALID,19.8744,VALID,182,VALID,0,
2005-02-02, 00:03:00,VALID,918.925,VALID,0,VALID,100,VALID,-0.0679233,VALID,19.8649,VALID,182,VALID,0,
2005-02-02, 00:04:00,VALID,918.919,VALID,0,VALID,100,VALID,-0.0509425,VALID,19.8582,VALID,182,VALID,0,
2005-02-02, 00:05:00,VALID,918.909,VALID,0,VALID,100,VALID,-0.0679233,VALID,19.8513,VALID,167,VALID,0,
2005-02-02, 00:06:00,VALID,918.9,VALID,0,VALID,100,VALID,-0.0679233,VALID,19.8607,VALID,135,VALID,0.652083,
2005-02-02, 00:07:00,VALID,918.872,VALID,0,VALID,100,VALID,-0.0339617,VALID,19.8642,VALID,142,VALID,0.624256,
2005-02-02, 00:08:00,VALID,918.841,VALID,0,VALID,100,VALID,-0.0509425,VALID,19.8649,VALID,130,VALID,0.7996,
2005-02-02, 00:09:00,VALID,918.82,VALID,0,VALID,100,VALID,-0.0679233,VALID,19.8391,VALID,133,VALID,0.806021,
2005-02-02, 00:10:00,VALID,918.793,VALID,0,VALID,100,VALID,-0.101885,VALID,19.8329,VALID,140,VALID,0.881098,
2005-02-02, 00:11:00,VALID,918.777,VALID,0,VALID,100,VALID,-0.0849042,VALID,19.8324,VALID,115,VALID,0.646577,
2005-02-02, 00:12:00,VALID,918.761,VALID,0,VALID,100,VALID,-0.0509425,VALID,19.8227,VALID,129,VALID,0.868304,
2005-02-02, 00:13:00,VALID,918.733,VALID,0,VALID,100,VALID,-0.0339617,VALID,19.816,VALID,123,VALID,0.77798,
2005-02-02, 00:14:00,VALID,918.724,VALID,0,VALID,100,VALID,-0.0849042,VALID,19.8128,VALID,122,VALID,0.966442,
2005-02-02, 00:15:00,VALID,918.715,VALID,0,VALID,100,VALID,-0.0679233,VALID,19.8098,VALID,130,VALID,0.783398,
2005-02-02, 00:16:00,VALID,918.717,VALID,0,VALID,100,VALID,-0.0509425,VALID,19.816,VALID,140,VALID,0.79794,
2005-02-02, 00:17:00,VALID,918.72,VALID,0,VALID,100,VALID,-0.0339617,VALID,19.8262,VALID,133,VALID,1.12269,
2005-02-02, 00:18:00,VALID,918.749,VALID,0,VALID,100,VALID,-0.0679233,VALID,19.8033,VALID,136,VALID,1.0728,
2005-02-02, 00:19:00,VALID,918.761,VALID,0,VALID,100,VALID,-0.0679233,VALID,19.8063,VALID,142,VALID,0.714666,
2005-02-02, 00:20:00,VALID,918.766,VALID,0,VALID,100,VALID,-0.0849042,VALID,19.8195,VALID,131,VALID,0.733594,
2005-02-02, 00:21:00,VALID,918.748,VALID,0,VALID,100,VALID,-0.0679233,VALID,19.8292,VALID,137,VALID,1.16548,
2005-02-02, 00:22:00,VALID,918.719,VALID,0,VALID,100,VALID,-0.0849042,VALID,19.8103,VALID,134,VALID,0.976563,
2005-02-02, 00:23:00,VALID,918.681,VALID,0,VALID,100,VALID,-0.0509425,VALID,19.8095,VALID,139,VALID,1.26544,
2005-02-02, 00:24:00,VALID,918.647,VALID,0,VALID,100,VALID,0,VALID,19.8066,VALID,130,VALID,0.952381,
2005-02-02, 00:25:00,VALID,918.617,VALID,0,VALID,100,VALID,-0.0679233,VALID,19.8063,VALID,132,VALID,1.07717,
2005-02-02, 00:26:00,VALID,918.616,VALID,0,VALID,100,VALID,-0.0509425,VALID,19.8066,VALID,139,VALID,1.04965,
2005-02-02, 00:27:00,VALID,918.613,VALID,0,VALID,100,VALID,-0.0509425,VALID,19.7998,VALID,123,VALID,0.982279,
2005-02-02, 00:28:00,VALID,918.626,VALID,0,VALID,100,VALID,-0.0509425,VALID,19.7902,VALID,115,VALID,0.944602,
2005-02-02, 00:29:00,VALID,918.653,VALID,0,VALID,100,VALID,-0.0509425,VALID,19.8001,VALID,131,VALID,0.805556,
2005-02-02, 00:30:00,VALID,918.673,VALID,0,VALID,100,VALID,-0.0849042,VALID,19.8095,VALID,117,VALID,0.648624,
2005-02-02, 00:31:00,VALID,918.702,VALID,0,VALID,100,VALID,-0.0339617,VALID,19.816,VALID,117,VALID,0.784766,
2005-02-02, 00:32:00,VALID,918.716,VALID,0,VALID,100,VALID,-0.0509425,VALID,19.8197,VALID,117,VALID,0.900254,
2005-02-02, 00:33:00,VALID,918.732,VALID,0,VALID,100,VALID,-0.0339617,VALID,19.8192,VALID,111,VALID,0.540737,
2005-02-02, 00:34:00,VALID,918.734,VALID,0,VALID,100,VALID,-0.0339617,VALID,19.8257,VALID,119,VALID,0.924183,
2005-02-02, 00:35:00,VALID,918.713,VALID,0,VALID,100,VALID,-0.0509425,VALID,19.8128,VALID,121,VALID,0.471768,
2005-02-02, 00:36:00,VALID,918.709,VALID,0,VALID,100,VALID,-0.0679233,VALID,19.816,VALID,122,VALID,0.417578,
2005-02-02, 00:37:00,VALID,918.707,VALID,0,VALID,100,VALID,-0.0849042,VALID,19.8294,VALID,103,VALID,0.602706,
2005-02-02, 00:38:00,VALID,918.696,VALID,0,VALID,100,VALID,-0.0679233,VALID,19.8451,VALID,67,VALID,0.358041,
2005-02-02, 00:39:00,VALID,918.673,VALID,0,VALID,100,VALID,-0.0849042,VALID,19.8552,VALID,91,VALID,0.56064,
2005-02-02, 00:40:00,VALID,918.656,VALID,0,VALID,100,VALID,-0.101885,VALID,19.8456,VALID,77,VALID,0.825581,
2005-02-02, 00:41:00,VALID,918.628,VALID,0,VALID,100,VALID,-0.0679233,VALID,19.8165,VALID,81,VALID,1.33802,
2005-02-02, 00:42:00,VALID,918.612,VALID,0,VALID,100,VALID,-0.0849042,VALID,19.7941,VALID,75,VALID,0.999805,
2005-02-02, 00:43:00,VALID,918.588,VALID,0,VALID,100,VALID,-0.101885,VALID,19.8076,VALID,71,VALID,0.822856,
2005-02-02, 00:44:00,VALID,918.583,VALID,0,VALID,100,VALID,-0.0679233,VALID,19.8068,VALID,61,VALID,0.722929,
2005-02-02, 00:45:00,VALID,918.578,VALID,0,VALID,100,VALID,-0.101885,VALID,19.8103,VALID,52,VALID,0.861919,
2005-02-02, 00:46:00,VALID,918.576,VALID,0,VALID,100,VALID,-0.101885,VALID,19.8043,VALID,54,VALID,0.99891,
2005-02-02, 00:47:00,VALID,918.581,VALID,0,VALID,100,VALID,-0.118866,VALID,19.781,VALID,66,VALID,0.814303,
2005-02-02, 00:48:00,VALID,918.566,VALID,0,VALID,100,VALID,-0.0679233,VALID,19.7648,VALID,62,VALID,0.891006,
2005-02-02, 00:49:00,VALID,918.539,VALID,0,VALID,100,VALID,-0.0679233,VALID,19.7514,VALID,47,VALID,0.564453,
2005-02-02, 00:50:00,VALID,918.519,VALID,0,VALID,100,VALID,-0.0169808,VALID,19.7377,VALID,36,VALID,0.512962,
2005-02-02, 00:51:00,VALID,918.502,VALID,0,VALID,100,VALID,0.0679233,VALID,19.7338,VALID,36,VALID,0.372954,
2005-02-02, 00:52:00,VALID,918.474,VALID,0,VALID,100,VALID,0.0339617,VALID,19.7179,VALID,16,VALID,0.331143,
2005-02-02, 00:53:00,VALID,918.474,VALID,0,VALID,100,VALID,0.0509425,VALID,19.7047,VALID,12,VALID,0.361861,
2005-02-02, 00:54:00,VALID,918.492,VALID,0,VALID,100,VALID,0,VALID,19.702,VALID,12,VALID,0.4133,
2005-02-02, 00:55:00,VALID,918.503,VALID,0,VALID,100,VALID,0.0169808,VALID,19.7151,VALID,12,VALID,0.199673,
2005-02-02, 00:56:00,VALID,918.536,VALID,0,VALID,100,VALID,0,VALID,19.7149,VALID,12,VALID,0.0840278,
2005-02-02, 00:57:00,VALID,918.563,VALID,0,VALID,100,VALID,0.0169808,VALID,19.7216,VALID,12,VALID,0.160938,
2005-02-02, 00:58:00,VALID,918.619,VALID,0,VALID,100,VALID,0.0169808,VALID,19.6987,VALID,12,VALID,0.219444,
2005-02-02, 00:59:00,VALID,918.643,VALID,0,VALID,100,VALID,0,VALID,19.6888,VALID,12,VALID,0,
2005-02-02, 01:00:00,VALID,918.669,VALID,0,VALID,100,VALID,0.0339617,VALID,19.6955,VALID,12,VALID,0,
2005-02-02, 01:01:00,VALID,918.688,VALID,0,VALID,100,VALID,0,VALID,19.7052,VALID,12,VALID,0,
2005-02-02, 01:02:00,VALID,918.712,VALID,0,VALID,100,VALID,0.0339617,VALID,19.7144,VALID,12,VALID,0.103468,
2005-02-02, 01:03:00,VALID,918.716,VALID,0,VALID,100,VALID,0.0509425,VALID,19.705,VALID,11,VALID,0.419444,
2005-02-02, 01:04:00,VALID,918.71,VALID,0,VALID,100,VALID,0,VALID,19.7184,VALID,11,VALID,0.302455,
2005-02-02, 01:05:00,VALID,918.693,VALID,0,VALID,100,VALID,0.0509425,VALID,19.7213,VALID,11,VALID,0.12593,
2005-02-02, 01:06:00,VALID,918.689,VALID,0,VALID,100,VALID,0.0339617,VALID,19.7082,VALID,11,VALID,0.0483285,
2005-02-02, 01:07:00,VALID,918.682,VALID,0,VALID,100,VALID,0,VALID,19.7281,VALID,11,VALID,0.0012718,
2005-02-02, 01:08:00,VALID,918.698,VALID,0,VALID,100,VALID,0.0169808,VALID,19.7539,VALID,11,VALID,0,
2005-02-02, 01:09:00,VALID,918.699,VALID,0,VALID,100,VALID,0,VALID,19.7695,VALID,11,VALID,0,
2005-02-02, 01:10:00,VALID,918.719,VALID,0,VALID,100,VALID,0.0679233,VALID,19.7569,VALID,11,VALID,0,
2005-02-02, 01:11:00,VALID,918.724,VALID,0,VALID,100,VALID,0.0169808,VALID,19.7859,VALID,11,VALID,0,
2005-02-02, 01:12:00,VALID,918.733,VALID,0,VALID,100,VALID,0.0339617,VALID,19.7792,VALID,11,VALID,0.0357921,
2005-02-02, 01:13:00,VALID,918.735,VALID,0,VALID,100,VALID,0.0509425,VALID,19.7892,VALID,11,VALID,0.144627,
2005-02-02, 01:14:01,VALID,918.727,VALID,0,VALID,100,VALID,0.0679233,VALID,19.7954,VALID,11,VALID,0.0432546,
2005-02-02, 01:15:00,VALID,918.721,VALID,0,VALID,100,VALID,0,VALID,19.7954,VALID,11,VALID,0.16915,
2005-02-02, 01:16:00,VALID,918.71,VALID,0,VALID,100,VALID,0.0509425,VALID,19.7892,VALID,11,VALID,0.221289,
2005-02-02, 01:17:00,VALID,918.721,VALID,0,VALID,100,VALID,0.0169808,VALID,19.7757,VALID,11,VALID,0.350472,
2005-02-02, 01:18:00,VALID,918.728,VALID,0,VALID,100,VALID,0.0339617,VALID,19.7698,VALID,7,VALID,0.499256,
2005-02-02, 01:19:00,VALID,918.714,VALID,0,VALID,100,VALID,0.0339617,VALID,19.7534,VALID,7,VALID,0.360618,
2005-02-02, 01:20:00,VALID,918.7,VALID,0,VALID,100,VALID,0.0169808,VALID,19.7698,VALID,5,VALID,0.427649,
2005-02-02, 01:21:00,VALID,918.671,VALID,0,VALID,100,VALID,0.0339617,VALID,19.7762,VALID,15,VALID,0.500363,
2005-02-02, 01:22:00,VALID,918.643,VALID,0,VALID,100,VALID,0.0339617,VALID,19.776,VALID,185,VALID,0.696039,
2005-02-02, 01:23:00,VALID,918.606,VALID,0,VALID,100,VALID,0,VALID,19.7636,VALID,209,VALID,0.815589,
2005-02-02, 01:24:00,VALID,918.576,VALID,0,VALID,100,VALID,0.0339617,VALID,19.7375,VALID,185,VALID,0.585938,
2005-02-02, 01:25:00,VALID,918.559,VALID,0,VALID,100,VALID,0,VALID,19.7343,VALID,204,VALID,0.651456,
2005-02-02, 01:26:00,VALID,918.552,VALID,0,VALID,100,VALID,0.0169808,VALID,19.7216,VALID,199,VALID,0.609197,
2005-02-02, 01:27:00,VALID,918.554,VALID,0,VALID,100,VALID,0,VALID,19.7216,VALID,224,VALID,0.473028,
2005-02-02, 01:28:00,VALID,918.561,VALID,0,VALID,100,VALID,0.0169808,VALID,19.7122,VALID,235,VALID,0.653993,
2005-02-02, 01:29:01,VALID,918.563,VALID,0,VALID,100,VALID,0,VALID,19.699,VALID,209,VALID,0.4625,
2005-02-02, 01:30:00,VALID,918.579,VALID,0,VALID,100,VALID,0.0169808,VALID,19.6888,VALID,200,VALID,0.523438,
2005-02-02, 01:31:01,VALID,918.573,VALID,0,VALID,100,VALID,0.0169808,VALID,19.7218,VALID,191,VALID,0.0813954,
2005-02-02, 01:32:00,VALID,918.584,VALID,0,VALID,100,VALID,0.0169808,VALID,19.7216,VALID,190,VALID,0.304878,
2005-02-02, 01:33:01,VALID,918.562,VALID,0,VALID,100,VALID,0,VALID,19.7149,VALID,188,VALID,0.162109,
2005-02-02, 01:34:01,VALID,918.556,VALID,0,VALID,100,VALID,0.0169808,VALID,19.7206,VALID,182,VALID,0.16311,
2005-02-02, 01:35:01,VALID,918.532,VALID,0,VALID,100,VALID,0.0339617,VALID,19.7541,VALID,46,VALID,0.43064,
2005-02-02, 01:36:01,VALID,918.511,VALID,0,VALID,100,VALID,0,VALID,19.7477,VALID,46,VALID,0.807165,
2005-02-02, 01:37:00,VALID,918.488,VALID,0,VALID,100,VALID,0,VALID,19.7407,VALID,40,VALID,1.03561,
2005-02-02, 01:38:00,VALID,918.44,VALID,0,VALID,100,VALID,-0.0169808,VALID,19.7343,VALID,38,VALID,1.08899,
2005-02-02, 01:39:01,VALID,918.409,VALID,0,VALID,100,VALID,0.0169808,VALID,19.7407,VALID,41,VALID,1.26641,
2005-02-02, 01:40:00,VALID,918.368,VALID,0,VALID,100,VALID,0,VALID,19.702,VALID,47,VALID,0.953658,
2005-02-02, 01:41:01,VALID,918.347,VALID,0,VALID,100,VALID,0,VALID,19.6925,VALID,57,VALID,0.750953,
2005-02-02, 01:42:00,VALID,918.336,VALID,0,VALID,100,VALID,0,VALID,19.6667,VALID,70,VALID,0.637847,
2005-02-02, 01:43:01,VALID,918.317,VALID,0,VALID,100,VALID,0.0339617,VALID,19.654,VALID,96,VALID,0.654883,
2005-02-02, 01:44:00,VALID,918.316,VALID,0,VALID,100,VALID,0,VALID,19.6376,VALID,92,VALID,0.402876,
2005-02-02, 01:45:00,VALID,918.31,VALID,0,VALID,100,VALID,0,VALID,19.628,VALID,93,VALID,0.614211,
2005-02-02, 01:46:01,VALID,918.296,VALID,0,VALID,100,VALID,0,VALID,19.6016,VALID,93,VALID,0.683984,
2005-02-02, 01:47:00,VALID,918.293,VALID,0,VALID,100,VALID,0.0169808,VALID,19.6058,VALID,93,VALID,0.428354,
2005-02-02, 01:48:01,VALID,918.273,VALID,0,VALID,100,VALID,0.0169808,VALID,19.5986,VALID,93,VALID,0.224694,
2005-02-02, 01:49:00,VALID,918.255,VALID,0,VALID,100,VALID,0.0339617,VALID,19.589,VALID,93,VALID,0.496185,
2005-02-02, 01:50:01,VALID,918.228,VALID,0,VALID,100,VALID,0.0339617,VALID,19.5954,VALID,93,VALID,0.230273,
2005-02-02, 01:51:00,VALID,918.202,VALID,0,VALID,100,VALID,0.0339617,VALID,19.6086,VALID,93,VALID,0.245164,
2005-02-02, 01:52:00,VALID,918.197,VALID,0,VALID,100,VALID,0.0169808,VALID,19.6083,VALID,93,VALID,0.217115,
2005-02-02, 01:53:00,VALID,918.185,VALID,0,VALID,100,VALID,0.0169808,VALID,19.6056,VALID,93,VALID,0.283975,
2005-02-02, 01:54:00,VALID,918.17,VALID,0,VALID,100,VALID,0.0169808,VALID,19.5855,VALID,94,VALID,0.211523,
2005-02-02, 01:55:00,VALID,918.16,VALID,0,VALID,100,VALID,0.0169808,VALID,19.5927,VALID,94,VALID,0.330602,
2005-02-02, 01:56:01,VALID,918.162,VALID,0,VALID,100,VALID,0,VALID,19.5795,VALID,94,VALID,0.345982,
2005-02-02, 01:57:00,VALID,918.171,VALID,0,VALID,100,VALID,0,VALID,19.5733,VALID,100,VALID,0.474432,
2005-02-02, 01:58:00,VALID,918.17,VALID,0,VALID,100,VALID,0,VALID,19.5763,VALID,107,VALID,0.272866,
2005-02-02, 01:59:00,VALID,918.163,VALID,0,VALID,100,VALID,0.0339617,VALID,19.583,VALID,55,VALID,0.374238,
2005-02-02, 02:00:00,VALID,918.164,VALID,0,VALID,100,VALID,0.0339617,VALID,19.5793,VALID,42,VALID,0.207217,
2005-02-02, 02:01:00,VALID,918.166,VALID,0,VALID,100,VALID,0,VALID,19.5991,VALID,44,VALID,0.395167,
2005-02-02, 02:02:00,VALID,918.147,VALID,0,VALID,100,VALID,0.0509425,VALID,19.586,VALID,46,VALID,0.547619,
2005-02-02, 02:03:01,VALID,918.131,VALID,0,VALID,100,VALID,0,VALID,19.5696,VALID,61,VALID,0.756392,
2005-02-02, 02:04:00,VALID,918.118,VALID,0,VALID,100,VALID,0.0169808,VALID,19.5795,VALID,61,VALID,0.572027,
2005-02-02, 02:05:00,VALID,918.084,VALID,0,VALID,100,VALID,-0.0339617,VALID,19.5805,VALID,60,VALID,0.441016,
2005-02-02, 02:06:00,VALID,918.078,VALID,0,VALID,100,VALID,-0.0509425,VALID,19.5716,VALID,61,VALID,0.484561,
2005-02-02, 02:07:00,VALID,918.053,VALID,0,VALID,100,VALID,-0.0679233,VALID,19.5544,VALID,63,VALID,0.491257,
2005-02-02, 02:08:01,VALID,918.031,VALID,0,VALID,100,VALID,-0.0849042,VALID,19.5485,VALID,63,VALID,0.50436,
2005-02-02, 02:09:00,VALID,918.031,VALID,0,VALID,100,VALID,-0.0849042,VALID,19.5489,VALID,62,VALID,0.731357,
2005-02-02, 02:10:00,VALID,918.022,VALID,0,VALID,100,VALID,-0.101885,VALID,19.5524,VALID,45,VALID,0.924851,
2005-02-02, 02:11:00,VALID,918.01,VALID,0,VALID,100,VALID,-0.101885,VALID,19.536,VALID,32,VALID,1.01641,
2005-02-02, 02:12:00,VALID,917.996,VALID,0,VALID,100,VALID,-0.0849042,VALID,19.507,VALID,32,VALID,1.12482,
2005-02-02, 02:13:00,VALID,917.981,VALID,0,VALID,100,VALID,-0.0849042,VALID,19.5167,VALID,37,VALID,0.93285,
2005-02-02, 02:14:00,VALID,917.951,VALID,0,VALID,100,VALID,-0.0849042,VALID,19.5293,VALID,51,VALID,0.92721,
2005-02-02, 02:15:01,VALID,917.933,VALID,0,VALID,100,VALID,-0.101885,VALID,19.5234,VALID,57,VALID,0.823661,
2005-02-02, 02:16:01,VALID,917.906,VALID,0,VALID,100,VALID,-0.0849042,VALID,19.5169,VALID,63,VALID,0.790777,
2005-02-02, 02:17:01,VALID,917.886,VALID,0,VALID,100,VALID,-0.101885,VALID,19.5132,VALID,74,VALID,1.15605,
2005-02-02, 02:18:00,VALID,917.849,VALID,0,VALID,100,VALID,-0.0849042,VALID,19.5037,VALID,77,VALID,0.684152,
2005-02-02, 02:19:00,VALID,917.827,VALID,0,VALID,100,VALID,-0.0849042,VALID,19.4844,VALID,69,VALID,0.809416,
2005-02-02, 02:20:01,VALID,917.815,VALID,0,VALID,100,VALID,-0.0339617,VALID,19.4836,VALID,79,VALID,0.666969,
2005-02-02, 02:21:00,VALID,917.809,VALID,0,VALID,100,VALID,0,VALID,19.4734,VALID,85,VALID,0.644614,
2005-02-02, 02:22:00,VALID,917.781,VALID,0,VALID,100,VALID,0,VALID,19.4571,VALID,84,VALID,0.399346,
2005-02-02, 02:23:00,VALID,917.765,VALID,0,VALID,100,VALID,0.0169808,VALID,19.4571,VALID,84,VALID,0.512576,
2005-02-02, 02:24:01,VALID,917.746,VALID,0,VALID,100,VALID,0,VALID,19.4474,VALID,91,VALID,0.547066,
2005-02-02, 02:25:00,VALID,917.736,VALID,0,VALID,100,VALID,0,VALID,19.4409,VALID,98,VALID,0.618608,
2005-02-02, 02:26:00,VALID,917.733,VALID,0,VALID,100,VALID,0,VALID,19.4446,VALID,98,VALID,0.513672,
2005-02-02, 02:27:01,VALID,917.754,VALID,0,VALID,100,VALID,0,VALID,19.4186,VALID,98,VALID,0.634487,
2005-02-02, 02:28:00,VALID,917.759,VALID,0,VALID,100,VALID,0,VALID,19.4089,VALID,98,VALID,0.721294,
2005-02-02, 02:29:01,VALID,917.762,VALID,0,VALID,100,VALID,0,VALID,19.396,VALID,98,VALID,0.800872,
2005-02-02, 02:30:01,VALID,917.774,VALID,0,VALID,100,VALID,-0.0169808,VALID,19.4153,VALID,97,VALID,0.64939,
2005-02-02, 02:31:00,VALID,917.765,VALID,0,VALID,100,VALID,0,VALID,19.4156,VALID,84,VALID,0.643043,
2005-02-02, 02:32:00,VALID,917.756,VALID,0,VALID,100,VALID,0,VALID,19.4019,VALID,85,VALID,0.425409,
2005-02-02, 02:33:00,VALID,917.738,VALID,0,VALID,100,VALID,0,VALID,19.4022,VALID,73,VALID,0.513421,
2005-02-02, 02:34:00,VALID,917.696,VALID,0,VALID,100,VALID,0.0169808,VALID,19.3989,VALID,69,VALID,0.424023,
2005-02-02, 02:35:00,VALID,917.687,VALID,0,VALID,100,VALID,-0.0849042,VALID,19.3967,VALID,69,VALID,0.0343387,
2005-02-02, 02:36:00,VALID,917.675,VALID,0,VALID,100,VALID,-0.118866,VALID,19.4009,VALID,69,VALID,0.0316051,
2005-02-02, 02:37:00,VALID,917.66,VALID,0,VALID,100,VALID,-0.169808,VALID,19.388,VALID,105,VALID,0.350074,
2005-02-02, 02:38:00,VALID,917.673,VALID,0,VALID,100,VALID,-0.101885,VALID,19.388,VALID,143,VALID,0.519531,
2005-02-02, 02:39:00,VALID,917.69,VALID,0,VALID,100,VALID,-0.118866,VALID,19.3942,VALID,146,VALID,0.500186,
2005-02-02, 02:40:00,VALID,917.693,VALID,0,VALID,100,VALID,-0.118866,VALID,19.3977,VALID,146,VALID,0.562881,
2005-02-02, 02:41:00,VALID,917.703,VALID,0,VALID,100,VALID,-0.118866,VALID,19.4041,VALID,146,VALID,0.4913,
2005-02-02, 02:42:00,VALID,917.702,VALID,0,VALID,100,VALID,-0.135847,VALID,19.3912,VALID,145,VALID,0.441778,
2005-02-02, 02:43:00,VALID,917.689,VALID,0,VALID,100,VALID,-0.101885,VALID,19.388,VALID,145,VALID,0.480655,
2005-02-02, 02:44:00,VALID,917.684,VALID,0,VALID,100,VALID,-0.118866,VALID,19.3845,VALID,141,VALID,0.784412,
2005-02-02, 02:45:00,VALID,917.659,VALID,0,VALID,100,VALID,-0.118866,VALID,19.3681,VALID,132,VALID,0.647418,
2005-02-02, 02:46:01,VALID,917.625,VALID,0,VALID,100,VALID,-0.101885,VALID,19.3686,VALID,133,VALID,0.840693,
2005-02-02, 02:47:00,VALID,917.586,VALID,0,VALID,100,VALID,-0.118866,VALID,19.3813,VALID,139,VALID,0.608285,
2005-02-02, 02:48:00,VALID,917.557,VALID,0,VALID,100,VALID,-0.118866,VALID,19.388,VALID,146,VALID,0.778832,
2005-02-02, 02:49:00,VALID,917.519,VALID,0,VALID,100,VALID,-0.101885,VALID,19.3783,VALID,146,VALID,0.696243,
2005-02-02, 02:50:01,VALID,917.477,VALID,0,VALID,100,VALID,-0.0679233,VALID,19.3847,VALID,144,VALID,0.782422,
2005-02-02, 02:51:00,VALID,917.446,VALID,0,VALID,100,VALID,0,VALID,19.3865,VALID,129,VALID,0.709032,
2005-02-02, 02:52:00,VALID,917.403,VALID,0,VALID,100,VALID,0,VALID,19.3801,VALID,127,VALID,0.749628,
2005-02-02, 02:53:01,VALID,917.386,VALID,0,VALID,100,VALID,0,VALID,19.3801,VALID,119,VALID,0.610305,
2005-02-02, 02:54:00,VALID,917.375,VALID,0,VALID,100,VALID,-0.0339617,VALID,19.3669,VALID,122,VALID,0.276163,
2005-02-02, 02:55:00,VALID,917.359,VALID,0,VALID,100,VALID,0,VALID,19.3768,VALID,117,VALID,0.224019,
2005-02-02, 02:56:01,VALID,917.35,VALID,0,VALID,100,VALID,-0.0169808,VALID,19.354,VALID,116,VALID,0.322088,
2005-02-02, 02:57:00,VALID,917.364,VALID,0,VALID,100,VALID,-0.0509425,VALID,19.348,VALID,116,VALID,0.358132,
2005-02-02, 02:58:00,VALID,917.358,VALID,0,VALID,100,VALID,-0.0169808,VALID,19.348,VALID,111,VALID,0.5496,
2005-02-02, 02:59:00,VALID,917.361,VALID,0,VALID,100,VALID,0,VALID,19.354,VALID,109,VALID,0.246366,
2005-02-02, 03:00:01,VALID,917.357,VALID,0,VALID,100,VALID,-0.0169808,VALID,19.3743,VALID,109,VALID,0.277435,
2005-02-02, 03:01:01,VALID,917.358,VALID,0,VALID,100,VALID,-0.0169808,VALID,19.3736,VALID,93,VALID,0.31936,
2005-02-02, 03:02:00,VALID,917.358,VALID,0,VALID,100,VALID,-0.0339617,VALID,19.3835,VALID,29,VALID,0.749414,
2005-02-02, 03:03:00,VALID,917.357,VALID,0,VALID,100,VALID,-0.0169808,VALID,19.3475,VALID,360,VALID,0.876635,
2005-02-02, 03:04:01,VALID,917.337,VALID,0,VALID,100,VALID,-0.0169808,VALID,19.306,VALID,357,VALID,0.72911,
2005-02-02, 03:05:01,VALID,917.311,VALID,0,VALID,100,VALID,0,VALID,19.2929,VALID,1,VALID,0.411914,
2005-02-02, 03:06:00,VALID,917.271,VALID,0,VALID,100,VALID,0,VALID,19.2966,VALID,352,VALID,0.0922965,
2005-02-02, 03:07:00,VALID,917.242,VALID,0,VALID,100,VALID,0,VALID,19.306,VALID,352,VALID,0.12934,
2005-02-02, 03:08:00,VALID,917.223,VALID,0,VALID,100,VALID,-0.0509425,VALID,19.313,VALID,352,VALID,0.000186012,
2005-02-02, 03:09:00,VALID,917.206,VALID,0,VALID,100,VALID,-0.0169808,VALID,19.3219,VALID,352,VALID,0.193945,
2005-02-02, 03:10:01,VALID,917.195,VALID,0,VALID,100,VALID,-0.0169808,VALID,19.3254,VALID,352,VALID,0.0464939,
2005-02-02, 03:11:01,VALID,917.177,VALID,0,VALID,100,VALID,0,VALID,19.3247,VALID,352,VALID,0.0239583,
2005-02-02, 03:12:01,VALID,917.184,VALID,0,VALID,100,VALID,0,VALID,19.3247,VALID,352,VALID,0,
2005-02-02, 03:13:00,VALID,917.183,VALID,0,VALID,100,VALID,-0.0339617,VALID,19.3254,VALID,352,VALID,0,
2005-02-02, 03:14:01,VALID,917.194,VALID,0,VALID,100,VALID,-0.0169808,VALID,19.3319,VALID,352,VALID,0,
2005-02-02, 03:15:01,VALID,917.201,VALID,0,VALID,100,VALID,-0.0339617,VALID,19.3252,VALID,352,VALID,0,
2005-02-02, 03:16:00,VALID,917.19,VALID,0,VALID,100,VALID,-0.0169808,VALID,19.3249,VALID,352,VALID,0,
2005-02-02, 03:17:00,VALID,917.193,VALID,0,VALID,100,VALID,0,VALID,19.3284,VALID,352,VALID,0,
2005-02-02, 03:18:01,VALID,917.205,VALID,0,VALID,100,VALID,-0.0169808,VALID,19.3383,VALID,352,VALID,0,
2005-02-02, 03:19:01,VALID,917.234,VALID,0,VALID,100,VALID,0,VALID,19.3483,VALID,352,VALID,0,
2005-02-02, 03:20:00,VALID,917.255,VALID,0,VALID,100,VALID,0,VALID,19.3572,VALID,352,VALID,0,
2005-02-02, 03:21:01,VALID,917.289,VALID,0,VALID,100,VALID,-0.0169808,VALID,19.387,VALID,352,VALID,0,
2005-02-02, 03:22:00,VALID,917.312,VALID,0,VALID,100,VALID,0,VALID,19.3902,VALID,352,VALID,0,
2005-02-02, 03:23:01,VALID,917.339,VALID,0,VALID,100,VALID,-0.0169808,VALID,19.3736,VALID,352,VALID,0,
2005-02-02, 03:24:00,VALID,917.344,VALID,0,VALID,100,VALID,-0.0169808,VALID,19.3607,VALID,352,VALID,0,
2005-02-02, 03:25:01,VALID,917.323,VALID,0,VALID,100,VALID,0,VALID,19.351,VALID,352,VALID,0.0909598,
2005-02-02, 03:26:01,VALID,917.3,VALID,0,VALID,100,VALID,-0.0169808,VALID,19.3507,VALID,352,VALID,0.107422,
2005-02-02, 03:27:00,VALID,917.286,VALID,0,VALID,100,VALID,0,VALID,19.3545,VALID,352,VALID,0.113467,
2005-02-02, 03:28:01,VALID,917.252,VALID,0,VALID,100,VALID,-0.0169808,VALID,19.3512,VALID,352,VALID,0.214367,
2005-02-02, 03:29:01,VALID,917.229,VALID,0,VALID,100,VALID,0,VALID,19.3711,VALID,352,VALID,0.225586,
2005-02-02, 03:30:01,VALID,917.214,VALID,0,VALID,100,VALID,-0.0169808,VALID,19.3609,VALID,352,VALID,0.165153,
2005-02-02, 03:31:01,VALID,917.196,VALID,0,VALID,100,VALID,-0.0339617,VALID,19.3701,VALID,352,VALID,0,
2005-02-02, 03:32:01,VALID,917.164,VALID,0,VALID,100,VALID,-0.0339617,VALID,19.3579,VALID,352,VALID,0.00538194,
2005-02-02, 03:33:01,VALID,917.147,VALID,0,VALID,100,VALID,-0.0509425,VALID,19.3416,VALID,352,VALID,0.338299,
2005-02-02, 03:34:01,VALID,917.138,VALID,0,VALID,100,VALID,-0.0169808,VALID,19.345,VALID,352,VALID,0.738372,
2005-02-02, 03:35:01,VALID,917.126,VALID,0,VALID,100,VALID,-0.0339617,VALID,19.3614,VALID,353,VALID,0.726199,
2005-02-02, 03:36:01,VALID,917.112,VALID,0,VALID,100,VALID,-0.0339617,VALID,19.3808,VALID,351,VALID,0.668359,
2005-02-02, 03:37:01,VALID,917.115,VALID,0,VALID,100,VALID,0,VALID,19.3808,VALID,350,VALID,0.80545,
2005-02-02, 03:38:01,VALID,917.122,VALID,0,VALID,100,VALID,0,VALID,19.3706,VALID,7,VALID,0.688045,
2005-02-02, 03:39:01,VALID,917.126,VALID,0,VALID,100,VALID,0,VALID,19.3612,VALID,165,VALID,0.715376,
2005-02-02, 03:40:01,VALID,917.123,VALID,0,VALID,100,VALID,-0.0169808,VALID,19.351,VALID,167,VALID,0.665153,
2005-02-02, 03:41:01,VALID,917.13,VALID,0,VALID,100,VALID,0,VALID,19.3579,VALID,174,VALID,0.690048,
2005-02-02, 03:42:01,VALID,917.126,VALID,0,VALID,100,VALID,0,VALID,19.3381,VALID,179,VALID,0.365552,